Location: Ravensburg
(47.7866°N, 9.6124°E)
Time: 03:01:09
(UTC+02:00)

Gurwin Techsat 1B - Pass Details

Date: 21 March 2026
Orbit: 809 x 812 km, 99.0° (Epoch: 14 April)

Event Time Altitude Azimuth Distance (km) Brightness Sun altitude
Rises 04:22:53 0° 27° (NNE) 3,340 12.6 -20.4°
Reaches altitude 10° 04:25:50 10° 44° (NE) 2,403 12.1 -19.9°
Maximum altitude 04:29:44 21° 91° (E) 1,774 11.2 -19.3°
Drops below altitude 10° 04:33:37 10° 139° (SE) 2,389 11.3 -18.7°
Sets 04:36:32 0° 155° (SSE) 3,315 11.8 -18.3°
